Theta_e
320 331 344 345 345 347 347 346 344 343 342 341 340 340 341 340 340 339 339 338 337 336 336 336 336 337 341 342 338 338 338 338 338 338 339 339 339 338 338 337 335 332 336
326 334 343 346 345 347 348 346 345 343 343 343 343 343 343 344 344 342 342 340 339 338 338 338 337 336 337 340 341 339 338 338 338 338 338 337 338 338 339 340 338 332 335
330 337 341 346 346 345 345 345 344 344 344 344 344 344 343 341 343 344 344 342 341 342 342 342 342 340 337 338 339 341 338 338 339 338 337 330 329 337 337 336 340 340 338
329 335 341 344 346 346 344 344 344 344 344 344 343 342 340 337 338 340 339 339 340 342 342 342 342 341 341 341 340 339 340 340 340 337 329 328 329 334 335 334 336 338 340
325 331 337 342 344 344 343 343 342 342 341 340 339 338 335 334 334 333 332 331 331 333 335 334 334 335 336 336 337 338 339 339 337 335 328 326 325 330 336 336 336 338 340
321 327 336 339 340 339 339 339 339 336 334 333 332 330 328 325 324 326 324 324 324 325 326 325 325 325 325 326 327 329 330 329 328 324 326 327 329 334 338 338 337 339 339
316 321 329 336 337 337 336 335 333 331 328 326 325 323 322 321 321 320 319 320 320 320 320 321 321 321 321 321 322 323 322 321 318 318 322 325 326 336 339 339 338 338 339
313 316 321 327 331 331 331 329 327 325 323 321 321 320 319 318 318 316 317 318 318 318 318 319 319 319 318 318 317 317 316 316 312 313 316 321 328 334 338 338 338 339 338
309 311 312 315 320 324 325 324 323 320 319 318 317 317 316 314 315 314 315 316 315 316 317 317 316 316 315 314 313 313 313 312 301 304 307 310 320 326 333 334 335 337 338
303 306 307 308 310 310 312 319 319 319 317 316 316 315 315 313 312 312 312 312 313 313 314 314 314 313 312 310 311 311 310 307 299 300 302 305 314 317 320 325 330 333 336
298 299 302 304 304 304 305 310 315 317 316 314 312 312 306 300 300 302 310 310 311 311 311 312 312 310 308 306 307 308 306 299 298 299 300 308 313 316 319 320 322 326 330
294 295 298 299 298 298 303 303 302 304 302 300 299 299 299 299 301 301 304 306 308 307 309 309 308 306 302 297 297 301 298 297 298 298 300 308 312 315 317 318 319 321 322
294 295 296 297 296 295 296 298 296 297 297 298 297 298 298 297 296 296 295 295 296 300 297 298 297 297 296 296 296 296 296 296 296 297 300 307 310 313 316 317 318 320 321
293 295 295 296 296 295 294 295 295 296 295 296 296 297 296 295 294 294 294 294 294 295 294 294 295 296 296 296 296 296 296 295 296 297 298 304 307 311 314 316 318 319 320
292 294 294 293 294 294 293 294 294 295 294 296 295 297 296 294 294 294 294 294 293 294 294 294 294 295 294 295 295 295 295 295 295 296 296 302 305 309 312 314 316 317 318
294 293 294 293 293 293 292 293 293 294 294 294 294 296 296 295 294 294 293 293 293 294 294 294 294 293 293 294 294 294 294 294 295 295 296 297 303 306 308 311 313 315 316
294 294 293 294 293 293 292 292 293 293 294 293 294 295 296 296 295 294 293 292 293 294 294 293 293 293 292 293 292 293 293 294 294 294 295 295 297 301 304 308 310 311 313
293 293 294 297 294 292 292 292 293 293 293 293 293 295 296 297 295 293 293 292 293 293 293 292 291 291 291 290 290 290 291 291 292 292 293 294 294 296 299 304 305 306 308
294 294 293 294 293 293 292 292 293 292 292 293 293 294 295 297 296 294 293 293 293 292 291 291 291 290 289 289 290 290 290 290 290 293 291 292 293 295 295 299 301 301 303
294 294 295 295 295 293 292 291 291 291 291 292 293 294 296 296 295 294 292 293 293 291 290 290 290 289 289 288 290 290 288 289 289 289 289 293 292 293 293 293 293 294 299
294 294 294 294 294 293 291 290 289 289 290 291 293 294 296 295 295 293 292 292 292 290 290 290 289 288 287 288 286 286 287 288 288 289 290 289 290 291 291 292 292 292 293
293 294 294 294 294 294 294 290 291 291 290 292 293 294 295 295 295 294 292 292 291 290 289 289 288 287 287 287 284 283 282 284 287 289 288 289 289 290 290 291 290 291 290
293 294 294 294 294 294 294 292 291 292 291 291 292 293 294 295 295 294 293 292 291 290 288 288 287 286 285 286 286 284 280 280 283 286 287 288 288 288 287 289 289 289 290
293 295 295 295 294 294 293 293 291 291 290 291 291 292 293 295 294 294 293 292 291 290 288 287 288 286 285 283 284 289 286 284 281 280 285 286 288 289 287 287 288 288 288
294 294 295 295 294 294 294 294 293 291 290 289 290 292 292 293 293 293 293 291 290 289 288 287 286 286 285 284 283 283 283 284 285 283 281 283 287 287 288 287 287 287 287
292 293 294 294 293 294 293 294 293 292 289 289 289 291 291 291 291 292 292 290 290 289 287 287 286 286 285 285 284 284 283 282 282 282 282 283 284 285 286 286 285 285 286
Wind_Speed
5 7 11 13 12 11 14 12 10 8 6 5 3 2 2 2 2 3 2 2 1 1 1 2 3 5 6 5 2 1 3 2 2 2 1 2 2 2 2 1 2 2 5
9 7 10 13 13 12 14 13 11 8 6 4 3 2 3 5 5 3 4 2 1 2 2 2 3 3 4 6 3 2 2 1 1 2 2 2 1 2 3 4 4 4 6
8 6 10 15 15 13 12 12 11 9 7 7 8 8 8 7 7 9 8 6 2 2 4 5 4 4 4 4 6 5 3 2 2 2 2 2 3 5 7 8 7 8 9
6 4 9 14 14 16 15 14 13 12 10 10 9 9 9 6 5 7 7 6 7 9 8 10 11 11 11 9 8 7 6 5 5 5 3 3 3 7 10 12 12 11 11
5 4 6 11 14 14 13 13 11 11 10 10 9 9 7 7 8 9 9 10 9 9 9 9 10 10 9 10 11 10 11 12 13 7 3 3 3 7 11 11 11 12 9
6 5 7 9 11 12 12 12 12 10 9 9 9 9 8 7 8 9 9 9 9 9 9 8 8 8 9 10 10 10 11 11 9 6 5 6 5 11 14 15 14 12 11
6 5 6 11 12 13 13 12 11 11 10 10 9 9 8 8 8 9 8 8 8 8 8 8 8 9 9 9 9 10 11 11 6 5 5 5 5 14 16 16 15 15 13
8 6 6 9 10 12 13 13 12 12 11 10 10 9 9 9 9 8 8 9 8 8 8 9 10 9 9 9 9 10 11 11 7 5 5 5 10 14 16 17 17 17 15
5 6 5 6 7 9 9 10 11 12 11 11 10 10 10 9 9 8 7 8 8 8 8 8 8 9 9 10 10 10 11 11 6 4 5 4 12 14 15 16 17 18 18
6 5 6 5 6 6 5 9 10 12 12 11 11 11 10 10 9 8 8 7 7 8 7 7 8 9 9 10 10 11 10 9 5 5 4 4 13 14 15 17 18 18 18
4 6 6 6 5 6 6 6 9 11 11 11 9 10 8 5 5 6 7 7 7 8 7 7 8 9 10 9 10 11 10 3 4 3 3 11 14 15 15 15 16 18 19
8 7 7 7 7 6 4 5 5 5 5 5 5 5 4 4 4 5 5 7 7 8 8 8 9 9 7 4 3 7 3 4 4 4 3 12 14 14 15 15 16 17 19
8 6 8 7 7 7 5 4 3 3 3 4 6 5 5 4 3 3 2 2 3 6 3 4 4 3 5 4 4 4 4 4 3 3 5 12 13 14 15 16 16 17 18
10 11 9 8 7 7 4 4 5 4 3 3 4 6 5 3 3 2 2 2 2 2 3 3 2 3 4 4 5 5 5 4 3 3 5 12 13 13 14 15 16 17 17
11 11 11 9 8 7 7 5 4 5 4 5 5 5 4 4 4 3 2 2 2 2 1 2 2 3 4 4 4 4 5 6 5 3 3 12 14 14 14 14 15 15 16
13 13 10 11 9 7 6 7 5 4 5 5 4 5 6 4 4 4 3 2 2 1 1 1 2 3 3 4 5 5 6 5 5 5 3 5 13 14 14 14 15 17 18
13 12 13 13 9 9 9 7 5 5 5 5 4 6 6 5 5 5 3 2 2 1 1 2 3 3 4 4 5 5 5 5 5 5 4 3 5 10 12 14 16 18 20
10 15 13 12 13 10 8 7 5 5 5 4 4 4 6 6 6 5 4 2 1 2 2 2 3 3 3 3 4 4 4 4 4 4 4 3 3 4 7 14 17 19 20
15 14 13 13 14 13 8 6 6 7 5 5 4 4 6 6 6 5 4 2 2 1 3 1 2 1 2 4 6 5 5 4 3 3 5 5 5 4 3 9 14 16 18
15 14 14 12 13 12 7 5 4 4 3 4 5 5 6 5 6 5 4 4 3 2 2 1 2 2 1 4 5 6 5 4 3 3 4 4 4 5 4 5 4 6 18
15 16 15 15 13 11 6 6 4 5 4 2 4 7 7 6 6 6 4 5 3 3 2 1 2 3 2 4 4 4 4 4 4 3 3 4 4 3 4 4 4 7 7
19 20 19 20 15 13 10 4 4 4 3 3 4 5 6 6 6 5 5 5 5 3 2 2 3 1 1 4 2 0 5 6 4 6 3 3 3 1 3 4 6 8 8
21 23 20 20 19 17 13 8 4 5 4 3 3 3 5 7 7 6 6 5 5 4 3 2 2 2 1 2 4 3 3 3 5 4 4 2 1 1 3 5 5 7 10
21 18 20 20 19 16 17 14 9 7 6 4 5 4 5 7 7 6 6 6 5 3 4 3 3 2 2 1 2 1 0 2 3 6 3 3 1 7 5 4 6 10 11
18 19 19 19 18 17 18 17 13 7 5 4 4 8 6 5 6 6 6 6 5 4 4 5 4 3 2 2 2 1 1 2 4 5 8 4 8 2 3 6 9 8 9
12 15 16 18 17 17 18 16 17 14 9 6 5 7 6 4 4 6 6 6 5 5 5 5 4 4 4 3 2 3 3 2 2 3 6 10 14 7 11 7 7 7 7
Wind_Direction
211 194 181 167 161 165 163 159 156 147 142 135 145 174 202 202 177 169 158 130 85 17 25 19 13 20 28 13 30 54 18 34 55 54 11 341 296 258 228 221 258 277 277
149 191 177 164 157 150 162 160 152 151 155 182 199 159 230 239 249 224 207 175 216 303 335 348 2 23 28 20 5 337 320 40 54 6 356 327 321 296 282 285 258 264 266
153 169 158 155 153 146 142 140 142 143 151 139 114 106 86 67 71 65 93 84 50 291 305 325 335 2 27 22 11 324 314 318 309 311 323 353 325 309 302 295 272 261 266
148 144 142 149 152 147 155 157 150 148 141 128 121 104 84 88 82 69 65 62 46 34 41 33 29 31 25 19 9 360 338 318 310 312 341 329 322 310 309 306 298 293 268
135 138 128 130 133 135 131 127 126 125 120 113 95 92 110 93 87 82 69 62 59 46 40 32 24 21 12 15 12 8 6 8 4 340 320 299 292 295 304 304 302 299 304
143 130 136 133 143 157 145 137 134 125 120 110 113 111 112 100 92 88 71 66 59 56 51 46 37 34 33 19 11 6 3 5 0 353 337 313 303 296 300 302 300 296 292
145 143 135 148 159 158 152 145 139 136 130 127 125 119 114 95 92 82 76 73 67 61 52 46 46 41 32 27 22 19 13 7 6 353 335 325 307 303 296 293 291 293 294
149 150 144 148 153 153 151 147 144 137 133 130 126 119 108 94 93 79 75 73 62 59 53 54 42 35 31 33 23 12 8 8 12 354 340 327 317 309 300 296 292 288 283
146 146 145 141 144 139 143 143 141 135 132 129 126 121 112 97 92 82 71 72 57 61 62 53 47 39 28 22 14 11 7 2 10 346 336 328 320 309 305 300 298 298 296
160 163 162 155 143 135 129 134 137 139 132 130 124 117 109 98 95 86 65 68 63 58 56 51 52 41 24 13 10 9 360 359 347 340 325 316 321 316 309 306 306 304 305
186 186 171 163 157 146 145 156 146 139 133 124 118 116 104 100 92 77 72 72 72 64 54 51 45 32 20 12 7 2 359 338 334 327 315 325 325 320 314 309 304 301 302
191 192 180 172 167 160 158 146 140 132 120 122 121 117 110 108 102 93 66 63 64 58 53 48 37 31 21 5 350 2 339 334 324 324 301 325 319 318 313 312 310 306 302
183 177 184 175 170 165 159 155 152 143 137 134 138 135 126 104 89 86 77 44 45 51 45 39 26 29 21 8 347 342 328 329 301 298 306 314 319 319 316 314 311 306 303
183 189 178 179 172 181 162 168 162 155 159 158 162 149 135 130 121 107 101 90 71 54 59 32 27 2 23 353 343 330 317 304 296 290 285 312 321 319 317 317 316 313 309
192 191 190 172 181 181 173 172 171 175 166 170 163 165 143 143 144 143 136 106 75 64 61 55 26 8 358 349 332 315 301 298 304 295 305 317 323 323 326 326 322 319 317
194 194 180 183 180 170 174 176 176 168 168 168 171 171 162 149 147 139 128 108 94 67 347 61 60 9 347 338 324 311 302 295 294 297 295 308 320 323 325 327 327 328 324
201 187 182 182 173 177 182 177 168 176 165 169 179 177 162 151 154 137 132 118 110 99 33 12 32 17 349 334 307 293 291 290 295 292 295 287 296 313 319 332 334 332 328
186 189 182 184 182 179 175 175 170 174 166 177 172 166 167 160 151 138 134 134 144 111 87 2 30 0 330 322 303 295 283 272 272 292 294 301 317 307 328 335 333 333 328
192 184 184 181 178 182 174 169 169 174 177 177 163 170 173 162 152 142 137 147 137 119 89 32 42 43 325 329 309 295 279 281 294 315 302 306 303 312 320 325 332 336 329
191 188 188 185 183 177 159 146 138 162 182 173 174 171 169 163 156 140 139 146 134 96 69 86 78 11 323 299 305 298 290 288 296 295 289 284 287 304 322 325 327 321 324
188 183 182 179 181 167 163 161 152 177 166 191 183 169 171 165 162 155 150 143 141 139 145 91 88 46 348 322 338 323 317 317 319 306 270 280 303 308 333 333 332 325 316
189 189 185 187 177 182 178 153 149 146 165 153 168 171 170 170 164 162 160 157 153 141 132 77 80 132 339 12 52 227 353 335 347 296 285 293 280 331 342 327 316 303 305
194 191 188 185 179 180 172 143 94 92 81 123 170 170 181 172 170 170 164 152 156 151 159 152 138 111 115 8 24 103 2 298 334 329 346 316 230 318 298 291 285 306 304
196 190 188 184 178 176 164 170 167 171 160 190 167 148 168 175 170 171 162 162 163 154 157 177 157 140 122 84 28 45 156 184 312 316 279 212 192 315 300 278 305 301 296
188 188 184 180 179 176 176 175 175 171 151 142 136 152 166 169 172 173 164 164 168 170 173 172 158 164 172 146 152 145 249 264 235 257 296 288 312 212 289 304 296 295 294
187 184 180 175 177 173 177 177 182 179 158 147 150 166 166 160 169 182 170 167 173 176 175 183 169 177 191 193 164 203 206 228 250 267 282 302 305 313 316 293 285 288 282